Arlington, WA
on Wednesday, February 6, 2013

Wednesday
Previous Day Next Day
Daily Summary
 ActualAverageRecord
Temperature
Mean Temperature °F °F  
Max Temperature 48°F 57°F 60°F (1998)
Min Temperature 42°F 29°F 10°F (2014)
Degree Days
Heating Degree Days 20    
Moisture
Dew Point 37°F   
Average Humidity 74    
Maximum Humidity 87    
Minimum Humidity 62    
Precipitation
Precipitation 0.00 in in in ()
Wind
Wind Speed 13 mph   
Max Wind Speed 18 mph   
Max Gust Speed 25 mph   
Visibility 10 miles   
Events     
Averages and records for this station are not official NWS values.
Key: T is trace of precipitation, MM is missing value
Source: NWS Daily Summary
Seasonal Weather Averages
Time(PST)TemperatureDew PointHumidity Pressure Visibility Wind DirectionWind SpeedGust SpeedPrecipitationEvents Conditions
12:15 AM 44.6°F 37.4°F 76% 29.94 in 10.0 miles South 12.7 mph - N/A   Overcast
12:35 AM 44.6°F 37.4°F 76% 29.95 in 10.0 miles South 12.7 mph - N/A   Overcast
12:55 AM 44.6°F 37.4°F 76% 29.95 in 10.0 miles South 17.3 mph 21.9 mph N/A   Overcast
1:15 AM 44.6°F 37.4°F 76% 29.95 in 10.0 miles South 11.5 mph - N/A   Overcast
1:35 AM 44.6°F 37.4°F 76% 29.96 in 10.0 miles SSE 13.8 mph 20.7 mph N/A   Overcast
1:55 AM 44.6°F 37.4°F 76% 29.97 in 10.0 miles South 11.5 mph - N/A   Overcast
2:15 AM 44.6°F 37.4°F 76% 29.97 in 10.0 miles SSE 16.1 mph 19.6 mph N/A   Overcast
2:35 AM 44.6°F 37.4°F 76% 29.97 in 10.0 miles SSE 15.0 mph - N/A   Overcast
2:55 AM 44.6°F 37.4°F 76% 29.97 in 10.0 miles SSE 11.5 mph - N/A   Overcast
3:15 AM 44.6°F 37.4°F 76% 29.98 in 10.0 miles SSE 12.7 mph - N/A   Overcast
3:35 AM 44.6°F 37.4°F 76% 29.98 in 10.0 miles South 11.5 mph - N/A   Overcast
3:55 AM 44.6°F 37.4°F 76% 29.98 in 10.0 miles South 15.0 mph - N/A   Overcast
4:15 AM 44.6°F 37.4°F 76% 30.00 in 10.0 miles South 13.8 mph - N/A   Overcast
4:35 AM 44.6°F 37.4°F 76% 30.00 in 10.0 miles South 15.0 mph 18.4 mph N/A   Overcast
4:55 AM 44.6°F 37.4°F 76% 30.00 in 10.0 miles SSE 13.8 mph 19.6 mph N/A   Overcast
5:15 AM 44.6°F 37.4°F 76% 30.01 in 10.0 miles SSE 16.1 mph 19.6 mph N/A   Overcast
5:35 AM 44.6°F 37.4°F 76% 30.01 in 10.0 miles SSE 13.8 mph - N/A   Overcast
5:55 AM 44.6°F 37.4°F 76% 30.01 in 10.0 miles SSE 13.8 mph 19.6 mph N/A   Overcast
6:15 AM 44.6°F 37.4°F 76% 30.01 in 10.0 miles SSE 13.8 mph 19.6 mph N/A   Overcast
6:35 AM 44.6°F 37.4°F 76% 30.02 in 10.0 miles SSE 11.5 mph 17.3 mph N/A   Overcast
6:55 AM 44.6°F 37.4°F 76% 30.02 in 10.0 miles SSE 15.0 mph - N/A   Overcast
7:15 AM 44.6°F 37.4°F 76% 30.03 in 10.0 miles SSE 15.0 mph 20.7 mph N/A   Overcast
7:35 AM 44.6°F 37.4°F 76% 30.03 in 10.0 miles SSE 12.7 mph - N/A   Overcast
7:55 AM 44.6°F 37.4°F 76% 30.03 in 10.0 miles SSE 11.5 mph - N/A   Overcast
8:35 AM 44.6°F 37.4°F 76% 30.05 in 10.0 miles SSE 16.1 mph 24.2 mph N/A   Overcast
8:55 AM 44.6°F 37.4°F 76% 30.05 in 10.0 miles SSE 17.3 mph - N/A   Overcast
9:15 AM 44.6°F 37.4°F 76% 30.04 in 10.0 miles SSE 16.1 mph 21.9 mph N/A   Overcast
9:35 AM 44.6°F 37.4°F 76% 30.04 in 10.0 miles SSE 17.3 mph 25.3 mph N/A   Overcast
9:55 AM 46.4°F 37.4°F 71% 30.04 in 10.0 miles SSE 16.1 mph 21.9 mph N/A   Mostly Cloudy
10:15 AM 46.4°F 37.4°F 71% 30.04 in 10.0 miles SSE 13.8 mph 18.4 mph N/A   Mostly Cloudy
10:35 AM 46.4°F 37.4°F 71% 30.04 in 10.0 miles SSE 17.3 mph 24.2 mph N/A   Overcast
10:55 AM 46.4°F 37.4°F 71% 30.04 in 10.0 miles SSE 18.4 mph 24.2 mph N/A   Scattered Clouds
11:15 AM 48.2°F 37.4°F 66% 30.04 in 10.0 miles SSE 18.4 mph - N/A   Clear
11:35 AM 48.2°F 37.4°F 66% 30.04 in 10.0 miles SSE 17.3 mph - N/A   Mostly Cloudy
11:55 AM 48.2°F 37.4°F 66% 30.03 in 10.0 miles SSE 13.8 mph 21.9 mph N/A   Mostly Cloudy
12:15 PM 48.2°F 35.6°F 62% 30.02 in 10.0 miles SSE 16.1 mph 21.9 mph N/A   Scattered Clouds
12:35 PM 48.2°F 35.6°F 62% 30.02 in 10.0 miles SE 12.7 mph - N/A   Mostly Cloudy
12:55 PM 48.2°F 35.6°F 62% 30.01 in 10.0 miles SSE 16.1 mph 21.9 mph N/A   Overcast
1:15 PM 48.2°F 35.6°F 62% 30.01 in 10.0 miles SSE 12.7 mph - N/A   Overcast
1:35 PM 48.2°F 35.6°F 62% 30.00 in 10.0 miles SSE 11.5 mph - N/A   Overcast
1:55 PM 48.2°F 35.6°F 62% 29.99 in 10.0 miles SE 10.4 mph - N/A   Overcast
2:15 PM 48.2°F 35.6°F 62% 29.98 in 10.0 miles SE 10.4 mph - N/A   Overcast
2:35 PM 46.4°F 35.6°F 66% 29.97 in 10.0 miles ESE 9.2 mph 16.1 mph N/A   Overcast
2:55 PM 46.4°F 35.6°F 66% 29.97 in 10.0 miles ESE 11.5 mph - N/A   Overcast
3:15 PM 48.2°F 35.6°F 62% 29.97 in 10.0 miles ESE 11.5 mph 18.4 mph N/A   Overcast
3:35 PM 46.4°F 37.4°F 71% 29.97 in 10.0 miles SE 15.0 mph 20.7 mph N/A   Overcast
3:55 PM 44.6°F 39.2°F 81% 29.97 in 10.0 miles SE 4.6 mph - N/A   Overcast
4:15 PM 44.6°F 39.2°F 81% 29.97 in 10.0 miles ESE 6.9 mph - N/A   Overcast
4:35 PM 44.6°F 39.2°F 81% 29.96 in 10.0 miles ESE 10.4 mph - N/A   Overcast
4:55 PM 44.6°F 39.2°F 81% 29.95 in 10.0 miles SE 10.4 mph - N/A   Overcast
5:15 PM 44.6°F 39.2°F 81% 29.95 in 10.0 miles ESE 11.5 mph 18.4 mph N/A   Overcast
5:35 PM 44.6°F 39.2°F 81% 29.94 in 10.0 miles SE 12.7 mph 19.6 mph N/A   Overcast
5:55 PM 44.6°F 37.4°F 76% 29.94 in 10.0 miles SE 10.4 mph - N/A   Overcast
6:15 PM 44.6°F 39.2°F 81% 29.94 in 10.0 miles SE 8.1 mph - N/A   Overcast
6:35 PM 42.8°F 39.2°F 87% 29.92 in 10.0 miles ESE 9.2 mph - N/A   Overcast
6:55 PM 44.6°F 37.4°F 76% 29.91 in 10.0 miles ESE 12.7 mph 17.3 mph N/A   Overcast
7:15 PM 44.6°F 37.4°F 76% 29.90 in 10.0 miles ESE 12.7 mph - N/A   Overcast
7:35 PM 44.6°F 37.4°F 76% 29.90 in 10.0 miles SE 10.4 mph - N/A   Overcast
7:55 PM 44.6°F 37.4°F 76% 29.89 in 10.0 miles SE 10.4 mph - N/A   Overcast
8:15 PM 44.6°F 37.4°F 76% 29.88 in 10.0 miles ESE 5.8 mph - N/A   Overcast
8:35 PM 44.6°F 37.4°F 76% 29.86 in 10.0 miles ENE 4.6 mph - N/A   Overcast
8:55 PM 46.4°F 35.6°F 66% 29.85 in 10.0 miles NE 4.6 mph - N/A   Overcast
9:15 PM 46.4°F 35.6°F 66% 29.84 in 10.0 miles Calm Calm - N/A   Overcast
9:35 PM 44.6°F 35.6°F 71% 29.84 in 10.0 miles ESE 4.6 mph - N/A   Overcast
9:55 PM 42.8°F 37.4°F 81% 29.83 in 10.0 miles WNW 4.6 mph - N/A   Overcast
10:15 PM 44.6°F 37.4°F 76% 29.82 in 10.0 miles Calm Calm - N/A   Overcast
10:35 PM 42.8°F 37.4°F 81% 29.81 in 10.0 miles Calm Calm - N/A   Overcast
10:55 PM 42.8°F 37.4°F 81% 29.81 in 10.0 miles Calm Calm - N/A   Overcast
11:15 PM 44.6°F 35.6°F 71% 29.81 in 10.0 miles SW 4.6 mph - N/A   Overcast
11:35 PM 44.6°F 35.6°F 71% 29.81 in 10.0 miles SE 4.6 mph - N/A   Overcast
11:55 PM 44.6°F 35.6°F 71% 29.82 in 10.0 miles SSE 8.1 mph 18.4 mph N/A   Overcast
Moon Phase
Feb. 06 Feb. 10 Feb. 17 Feb. 25 Mar. 04
Sunrise:07:29 AM (PST) Moon Rise:04:27 AM (PST)2/6
Sunset:05:17 PM (PST) Moon Set:01:32 PM (PST)2/6

Copyright © 2014 The Weather Underground, Inc.